Location: Unspecified
(0.0000°N, 0.0000°E)
Time: 15:51:25
(UTC+00:00)

deb Delta 126 - Pass Details

Date: 15 February 2026
Orbit: 1458 x 1580 km, 101.9° (Epoch: 6 March)

Event Time Altitude Azimuth Distance (km) Brightness Sun altitude
Rises 03:58:19 0° 7° (N) 4,742 ? -33.0°
Reaches altitude 10° 04:01:13 10° 4° (N) 3,766 ? -32.3°
Enters shadow 04:07:30 47° 335° (NNW) 2,004 ? -30.8°
Exits shadow 04:09:58 59° 285° (WNW) 1,779 ? -30.2°
Drops below altitude 10° 04:18:38 10° 209° (SSW) 3,766 ? -28.1°
Sets 04:21:33 0° 205° (SSW) 4,742 ? -27.4°
